GOES 3 (10953 NORAD) Tracking and Keplerian Element Data

This shows tracking and keplerian element data for the satellite.

Feedback or suggestion? Click here.




ElementValue
Catalog10953
NameGOES 3
Epoch Orbit12675
Epoch Day353.98896697
Epoch Year2025
RAAN300.5693
Inclination7.3078
Eccentricity0.0003301
Argument of Perigee320.6741
Mean Anonmoly225.893
Mean Motion0.99359848
Decay Rate1.17E-06
L11 10953U 78062A 25353.98896697 .00000117 00000+0 00000+0 0 9998
L22 10953 7.3078 300.5693 0003301 320.6741 225.8930 0.99359848126756



Live tracking and technical data element details for GOES 3 (NORAD 10953). GOES 3 can be tracked NOW for your location showing map with azimuth and elevation plus other details from your city location.







IsCatalogInMostPopularTable: catalog: 10953, numindb: 366
Update: records affected: 1



GetName: 10953 GOES 3

Hit Count: updated at: Tue, 20 Jan 2026 18:37:18 GMT